Location: Newark
(23.3970°S, 47.6010°W)
Time: 08:42:00
(UTC+00:00)

deb Explorer IX - Pass Details

Date: 23 February 2020
Orbit: 547 x 1101 km, 38.8° (Epoch: 28 March)

Event Time Altitude Azimuth Distance (km) Brightness Sun altitude
Rises 00:57:08 0° 281° (W) 3,559 ? -40.9°
Reaches altitude 10° 00:59:45 10° 274° (W) 2,697 ? -41.4°
Enters shadow 01:02:49 27° 256° (WSW) 1,835 ? -41.9°
Maximum altitude 01:06:01 42° 204° (SSW) 1,441 - -42.5°
Drops below altitude 10° 01:12:52 10° 134° (SE) 2,950 - -43.7°
Sets 01:15:52 0° 127° (SE) 3,925 - -44.2°
